FENGYUN 1C DEB

Satellite information

Favourite Embed

Satellite Type and Status

DEBRISIN ORBIT

Key statistics

Satellite FENGYUN 1C DEB at a glance.

Uptime

9714

Days in orbit

Revolutions

≈ 13.9

Per day

Orbit

SSO

Sun Synchronous Orbit

Inclination

98.6

Latest

Satellite identification and parameters

Extended collection of information and parameters for FENGYUN 1C DEB.

Object identification

Identified? True

Debris? True

Object name: FENGYUN 1C DEB

International designator: 1999-025PE

Object number (NORAD): 30053

Object ID (CCSDS): 30053

Country: PEOPLES REPUBLIC OF CHINA (PRC)

Current information (Y/N): Y

RCS size: SMALL

Orbital parameters

Period: 103.29 minutes

Inclination: 98.5756 deg

SMA: 7292.315 km

Apoapsis: 1155.966 km

Periapsis: 672.394 km

RAAN: 159.3909 deg

Eccentricy: 0.03315627

Argument of periapsis: 339.7805 deg

Mean anomaly: 204.8506 deg

Mean motion: 13.94134318 rev/day

Mean motion (dot): 0.00004423 rev/day2

B* drag term: 0.0021330497 1/REarth

Two-line elements (TLE)

Creation date: Dec. 12, 2025, 10:14 a.m.

Reference frame: TEME

Reference center: EARTH

Epoch: Dec. 12, 2025, 5:59 a.m. UTC

TLE line 0: 0 FENGYUN 1C DEB

TLE line 1: 1 30053U 99025PE 25346.24947762 .00004423 00000-0 21330-2 0 9991

TLE line 2: 2 30053 98.5756 159.3909 0331563 339.7805 204.8506 13.94134318949795

Live tracking on map

Real-time ground track for satellite FENGYUN 1C DEB.

In-orbit conjunctions

A list of the most updated potential collisions computed for object FENGYUN 1C DEB.

Target Orbit TCA Probability of collision Miss distance Type
ERS 1 SSO 2024-12-07 07:15:25 0.0004226136 302.0 (m) PAYLOAD
CZ-6A DEB LEO 2024-11-24 09:00:50 0.000319673 474.0 (m) DEBRIS
COSMOS 1816 LEO 2024-11-17 18:15:04 0.0003479315 209.0 (m) PAYLOAD

Associated space launch

Chinese polar orbiting meteorological satellite

FENGYUN 1C DEB was lifted into orbit during the mission ‘Long March 4B | Feng Yun 1C’, on board a Long March 4B space rocket.

The launch took place on May 10, 1999, 1:33 a.m. from Launch Complex 7.

For more information about the launch, click the button.

Launch to space Long March 4B | Feng Yun 1C
Long March 4B | Feng Yun 1C

Agency: N/A

Status: Launch Successful

Launch date: May 10, 1999, 1:33 a.m. UTC

Rocket: Long March 4B

Launch pad: Launch Complex 7

Location: Taiyuan Satellite Launch Center, People's Republic of China

...

Latest news about this satellite

There are no fresh news available about this satellite. Check back as we update our databases every day.


Newsletter sign-up

Weekly statistics, charts and insights to help you stay on top of the space industry.